Location: Agendoh
(31.0664°N, 8.9343°W)
Time: 04:36:06
(UTC+00:00)

OAO 3 Rocket - Visible Passes

Search period start: 29 June 2022 00:00
Search period end: 09 July 2022 00:00
Orbit: 628 x 681 km, 35.0° (Epoch: 28 June)

Date Brightness Start Highest point End Pass type
(mag) Time Alt. Az. Time Alt. Az. Time Alt. Az.
29 Jun 3.1 03:15:09 72° W 03:15:39 84° NNW 03:20:35 10° ENE visible
29 Jun 3.9 04:54:35 10° W 04:59:25 53° N 05:04:13 10° ENE visible
30 Jun 5.4 02:03:42 20° E 02:03:42 20° E 02:05:13 10° ENE visible
30 Jun 3.6 03:41:28 28° W 03:43:54 60° N 03:48:47 10° ENE visible
01 Jul 4.2 02:30:01 44° ENE 02:30:01 44° ENE 02:33:25 10° ENE visible
01 Jul 3.9 04:07:46 12° WNW 04:12:15 53° N 04:17:04 10° ENE visible
02 Jul 3.6 02:56:22 57° NNW 02:56:43 59° N 03:01:36 10° ENE visible
02 Jul 3.8 04:35:43 10° WNW 04:40:36 59° N 04:45:27 10° E visible
03 Jul 5.6 01:45:01 17° ENE 01:45:01 17° ENE 01:46:14 10° ENE visible
03 Jul 3.9 03:22:47 29° WNW 03:25:04 53° N 03:29:55 10° ENE visible
03 Jul 3.4 05:03:54 10° WNW 05:08:52 80° NNE 05:13:47 10° ESE visible
04 Jul 4.7 02:11:32 33° ENE 02:11:32 33° ENE 02:14:26 10° ENE visible
04 Jul 3.7 03:49:18 15° WNW 03:53:25 60° N 03:58:18 10° E visible
05 Jul 3.9 02:38:12 52° NNE 02:38:12 52° NNE 02:42:44 10° E visible
05 Jul 3.3 04:16:42 10° WNW 04:21:41 84° NNE 04:26:37 10° ESE visible
06 Jul 3.6 03:05:06 48° NW 03:06:14 62° N 03:11:08 10° E visible
06 Jul 3.3 04:44:55 10° WNW 04:49:47 58° SSW 04:54:36 10° SE visible
07 Jul 5.6 01:54:31 16° ENE 01:54:31 16° ENE 01:55:34 10° E visible
07 Jul 3.1 03:32:21 35° WNW 03:34:28 88° NNE 03:39:25 10° ESE visible
07 Jul 4.5 21:04:38 10° SSW 21:07:21 21° SSE 21:07:21 21° SSE visible
08 Jul 5.2 02:22:11 22° E 02:22:11 22° E 02:23:57 10° E visible
08 Jul 3.3 04:00:03 27° W 04:02:33 54° SSW 04:07:21 10° SE visible
08 Jul 3.4 21:31:41 10° SW 21:35:52 45° SSE 21:35:52 45° SSE visible
